SCP
0 0 0 0 0 0 0 0 0 0 0 0 0 0 0 0 0 0 0 0 0 0 0 0 0 0 0 0 0 0 0 0 0 0 0 0 0 0
0 0 0 0 0 0 0 0 0 0 0 0 0 0 0 0 0 0 0 0 0 0 0 0 0 0 0 0 0 0 0 0 0 0 0 0 0 0
0 0 0 0 0 0 0 0 0 0 0 0 0 0 0 0 0 0 0 0 0 0 0 0 0 0 0 0 0 0 0 0 0 0 0 0 0 0
0 0 0 0 0 0 0 0 0 0 0 0 0 0 0 0 0 0 0 0 0 0 0 0 0 0 0 0 0 0 0 0 0 0 0 0 0 0
0 0 0 0 0 0 0 0 0 0 0 0 0 0 0 0 0 0 0 0 0 0 0 0 0 0 0 0 0 0 0 0 0 0 0 0 0 0
0 0 0 0 0 0 0 0 0 0 0 0 0 0 0 0 0 0 0 0 0 0 0 0 0 0 0 0 0 0 0 0 0 0 0 0 0 0
0 0 0 0 0 0 0 0 0 0 0 0 0 0 0 0 0 0 0 0 0 0 0 0 0 0 0 0 0 0 0 0 0 0 0 0 0 0
0 0 0 0 0 0 0 0 0 0 0 0 0 0 0 0 0 0 0 0 0 0 0 0 0 0 0 0 0 0 0 0 0 0 0 0 0 0
0 0 0 0 0 0 0 0 0 0 0 0 0 0 0 0 0 0 0 0 0 0 0 0 0 0 0 0 0 0 0 0 0 0 0 0 0 0
0 0 0 0 0 0 0 0 0 0 0 0 0 0 0 0 0 0 0 0 0 0 0 0 0 0 0 0 0 0 0 0 0 0 0 0 0 0
0 0 0 0 0 0 0 0 0 0 0 0 0 0 0 0 0 0 0 0 0 0 0 0 0 0 0 0 0 0 0 0 0 0 0 0 0 0
0 0 0 0 0 0 0 0 0 0 0 0 0 0 0 0 0 0 0 0 0 0 0 0 0 0 0 0 0 0 0 0 0 0 0 0 0 0
0 0 0 0 0 0 0 0 0 0 0 0 0 0 0 0 0 0 0 0 0 0 0 0 0 0 0 0 0 0 0 0 0 0 0 0 0 0
0 0 0 0 0 0 0 0 0 0 0 0 0 0 0 0 0 0 0 0 0 0 0 0 0 0 0 0 0 0 0 0 0 0 0 0 0 0
0 0 0 0 0 0 0 0 0 0 0 0 0 0 0 0 0 0 0 0 0 0 0 0 0 0 0 0 0 0 0 0 0 0 0 0 0 0
0 0 0 0 0 0 0 0 0 0 0 0 0 0 0 0 0 0 0 0 0 0 0 0 0 0 0 0 0 0 0 0 0 0 0 0 0 0
0 0 0 0 0 0 0 0 0 0 0 0 0 0 0 0 0 0 0 0 0 0 0 0 0 0 0 0 0 0 0 0 0 0 0 0 0 0
0 0 0 0 0 0 0 0 0 0 0 0 0 0 0 0 0 0 0 0 0 0 0 0 0 0 0 0 0 0 0 0 0 0 0 0 0 0
0 0 0 0 0 0 0 0 0 0 0 0 0 -0 -0 0 0 0 0 0 0 0 0 0 0 0 0 0 0 0 0 0 0 0 0 0 0 0
0 0 0 0 0 0 0 0 0 0 0 0 -0 -0 -0 0 0 0 0 0 0 0 0 0 0 0 0 0 0 0 0 0 0 0 0 0 0 0
0 0 0 0 0 0 0 0 0 0 0 0 0 0 0 0 0 0 0 0 0 0 0 0 0 0 0 0 0 0 0 0 0 0 0 0 0 0
0 0 0 0 0 0 0 0 0 0 0 0 0 0 0 0 0 0 0 0 0 0 0 0 0 0 0 0 0 0 0 0 0 0 0 0 0 0
0 0 0 0 0 0 0 0 0 0 0 0 0 0 0 0 0 0 0 0 0 0 0 0 0 0 0 0 0 0 0 0 0 0 0 0 0 0
Wind_Speed
5 5 3 3 3 3 3 3 4 2 3 3 2 2 3 4 5 5 6 7 9 9 9 10 10 10 10 10 10 10 10 9 9 10 10 10 10 11
4 5 4 3 3 3 3 3 3 4 3 3 3 2 2 3 4 5 6 7 8 9 9 10 10 10 10 10 10 10 11 11 11 11 11 11 11 12
5 5 5 4 3 3 3 3 3 3 4 3 2 2 2 3 2 3 4 4 5 8 9 10 10 10 10 11 11 11 12 12 12 12 12 12 12 13
6 5 5 4 4 3 3 4 4 4 4 4 2 2 2 2 2 3 3 3 4 6 9 9 9 10 10 11 11 12 12 12 12 12 13 13 13 13
6 6 5 5 5 4 4 4 3 3 3 3 3 1 2 1 1 2 2 2 4 5 6 7 9 10 11 11 11 11 11 12 12 12 12 12 12 13
5 5 5 5 5 5 4 4 3 3 3 3 3 2 2 2 1 2 2 2 3 3 4 5 6 8 9 9 9 10 10 10 10 11 11 11 11 12
4 4 4 5 5 4 4 4 4 3 3 3 3 2 2 2 2 2 3 3 4 3 3 4 4 4 5 6 8 9 9 9 9 9 10 10 11 11
3 3 3 3 4 5 5 5 5 4 4 3 3 3 3 3 3 2 3 3 4 2 2 4 3 4 4 4 6 8 8 8 8 8 8 9 10 11
3 2 2 1 2 2 2 2 3 3 4 4 4 4 4 3 3 3 4 4 5 3 2 5 3 5 5 5 8 8 8 8 8 8 9 9 10 11
2 2 2 1 1 2 2 1 1 1 2 3 3 4 3 3 3 3 4 4 4 3 3 4 4 5 5 5 7 9 8 8 9 9 10 10 11 11
2 2 2 2 2 2 2 1 0 1 1 1 0 1 2 2 1 1 1 2 4 3 2 3 3 4 5 5 5 7 8 8 9 9 10 10 10 10
3 3 4 3 3 3 2 1 0 1 2 2 2 3 3 3 2 1 1 2 2 3 1 2 3 3 4 3 3 4 5 6 8 9 10 10 9 6
3 2 3 4 4 4 3 2 1 1 1 2 2 3 3 3 2 2 1 2 3 3 2 2 2 2 3 4 4 4 5 5 5 6 7 8 9 7
3 2 3 6 6 6 5 4 4 3 2 2 2 3 3 3 3 4 3 3 4 5 5 3 3 3 4 6 6 5 5 6 6 6 6 7 8 9
5 7 7 8 7 6 7 6 4 3 3 2 2 3 3 4 4 4 4 4 5 4 4 4 4 4 5 6 7 7 7 6 6 6 6 6 6 6
5 7 9 9 7 6 6 5 4 3 3 2 2 3 3 3 3 3 3 4 4 5 5 5 5 6 6 8 8 9 8 6 6 7 7 7 7 7
4 5 5 5 5 5 5 4 4 4 3 3 3 3 4 4 4 4 3 3 4 5 6 5 5 5 7 7 8 8 8 7 7 7 7 8 8 8
6 5 5 5 4 4 4 4 4 4 3 3 3 3 4 4 4 4 4 4 5 6 6 6 6 6 5 5 7 8 7 7 8 8 7 8 10 9
7 5 4 4 4 4 4 4 4 4 4 4 4 4 4 4 4 5 5 5 6 6 7 6 6 6 8 9 6 5 8 8 8 8 8 8 10 9
5 5 4 4 4 4 4 4 4 4 4 4 4 4 5 5 5 6 6 6 7 7 7 6 5 6 7 8 9 9 8 9 8 9 9 9 9 10
5 4 4 4 4 4 4 4 4 4 5 4 4 5 5 5 5 6 6 7 7 7 8 8 7 9 8 7 8 8 8 8 10 9 9 9 9 8
5 4 4 4 4 4 4 4 4 5 5 5 5 5 5 5 6 7 7 7 7 7 9 8 8 7 6 7 9 10 11 10 9 11 13 11 7 7
4 4 4 4 4 4 4 5 6 5 5 5 6 6 6 6 6 6 7 7 7 8 9 9 8 6 7 7 8 9 12 11 8 8 7 8 12 15
Wind_Direction
191 190 193 195 190 193 181 175 170 205 250 256 256 250 232 227 227 223 230 234 231 233 236 239 241 242 243 245 246 248 250 252 252 252 252 254 256 258
189 191 199 199 192 192 193 192 188 191 229 246 246 265 255 241 225 224 232 236 238 238 239 241 243 243 245 246 247 249 249 250 250 250 251 252 252 253
199 196 206 197 193 194 189 186 190 184 216 252 248 266 260 256 252 237 239 238 245 242 244 244 244 245 247 249 250 250 250 250 251 251 251 250 250 250
205 200 209 199 199 195 189 195 199 196 201 231 245 253 253 257 258 260 258 250 250 250 246 245 245 247 251 252 252 252 252 252 252 252 252 251 250 250
202 201 206 194 205 203 197 202 205 199 199 212 239 244 263 280 273 270 270 269 266 261 250 245 247 252 254 253 252 252 252 251 251 250 250 250 251 251
198 201 206 201 206 205 204 206 200 197 197 210 232 241 251 263 253 265 277 264 270 274 267 262 256 254 254 253 252 251 250 249 249 249 250 251 252 253
194 201 208 204 205 203 200 199 192 198 202 213 229 239 246 244 248 248 264 280 272 260 269 269 266 266 263 256 253 251 252 252 250 252 254 254 254 254
189 198 203 207 217 214 210 194 184 192 207 213 225 236 252 251 254 251 259 275 279 251 253 274 266 268 268 261 260 255 254 254 253 253 255 256 257 256
179 184 193 198 200 195 198 202 211 214 205 207 229 243 254 251 250 256 250 254 262 274 260 274 267 269 270 264 254 252 253 255 257 259 262 263 262 260
167 172 177 185 154 162 161 160 214 243 232 219 234 254 266 270 252 262 269 271 270 262 234 267 276 274 278 269 255 251 255 259 262 264 266 266 267 266
100 91 104 108 67 107 134 147 74 0 26 36 1 336 339 334 294 270 287 282 286 280 224 254 279 288 284 275 269 263 264 268 270 270 269 269 270 270
89 78 68 74 72 84 110 123 112 335 351 359 6 5 1 4 10 284 269 277 288 288 287 269 287 304 292 280 291 294 285 276 274 272 270 270 273 273
94 73 56 60 66 67 76 79 71 6 11 9 8 7 6 4 1 346 295 258 265 267 284 274 275 278 271 289 292 288 285 286 288 281 272 270 271 265
91 75 66 65 69 66 66 63 58 55 49 34 23 8 357 348 339 330 317 294 268 267 280 276 270 276 282 285 287 287 286 285 283 280 282 283 274 263
79 75 73 72 71 65 57 58 59 56 51 38 10 349 337 330 332 331 331 325 307 290 290 281 277 283 276 278 284 286 292 288 278 278 285 286 283 280
71 67 67 65 63 57 50 45 43 41 37 18 347 333 335 338 342 341 332 335 322 310 307 298 287 281 278 277 278 282 282 281 284 286 289 286 280 273
75 61 51 45 42 38 35 33 31 28 21 1 347 339 336 336 332 334 326 324 313 311 315 317 309 291 272 272 278 279 284 286 286 291 290 289 284 277
75 62 53 46 39 30 22 14 13 10 359 349 343 335 329 327 324 324 319 314 310 310 310 312 316 312 301 276 246 274 287 291 294 292 287 286 288 286
67 61 51 40 31 24 17 8 359 353 349 349 345 339 331 324 320 320 321 319 315 310 309 310 309 308 306 305 292 254 284 295 296 294 289 283 285 289
54 51 41 30 22 15 10 4 356 353 353 348 341 336 330 323 321 320 318 317 313 311 310 310 306 301 295 297 296 293 272 276 287 291 292 289 284 281
44 39 30 20 14 9 6 0 353 347 344 339 336 333 329 325 320 317 315 315 311 308 307 305 300 293 288 283 283 287 290 270 263 275 288 291 293 290
35 30 22 17 12 7 0 354 348 344 342 339 334 330 326 321 315 314 314 312 309 305 303 302 304 300 289 285 291 296 300 302 288 267 257 253 271 283
28 25 21 13 9 3 358 351 346 339 338 334 330 327 322 316 313 309 309 307 306 307 308 307 308 303 296 293 294 296 300 305 306 307 297 273 252 254